Tracking 18844 objects as of 21-Nov-2017
HD Live streaming from Space Station
objects crossing your sky now

COSMOS 89

Track COSMOS 89 now!
10-day predictions
COSMOS 89 is classified as:


NORAD ID: 1587
Int'l Code: 1965-073D
Perigee: 1,382.0 km
Apogee: 1,654.4 km
Inclination: 56.1 °
Period: 116.2 minutes
Semi major axis: 7889 km
RCS: 0.3518 m2 (medium)
Launch date: September 18, 1965
Source: Commonwealth of Independent States (former USSR) (CIS)
Launch site: TYURATAM MISSILE AND SPACE COMPLEX (TTMTR)
aabbcc
Your satellite tracking list
Your tracking list is empty




NASA's NSSDC Master Catalog

Two Line Element Set (TLE):
1 01587U 65073D   17324.86969108 -.00000106  00000-0 -90819-4 0  9996
2 01587  56.0540 144.2992 0172665 132.6513 340.6800 12.38953006361381
Source of the keplerian elements: AFSPC